Find Himawari-7

NORAD ID: 28937 Int'l Des: 2006-004 Owner: JCAB/JMA Country: J operational
HEOCIRCULAR

Live-Position

3D-Globus wird geladen...

Über Himawari-7

Beschreibung wird geladen...

Nächste Überflüge

Passes for default location (London). Set your location on the main map for personalized predictions.

Höhenverlauf

Loading altitude history...

Zweizeiliger Elementsatz

1 28937U 06004A 26106.07336473 .00000041 00000-0 00000-0 0 9992
2 28937 5.6235 73.7852 0006935 181.2622 187.5302 0.99076505 73613
Epoch: 16. Apr. 2026 • Age: 24 hours

Aktueller Status

Höhe 36153.5 km
Geschwindigkeit 3.06 km/s
Subsatellitenpunkt 0.87°N, 152.47°W
Startdatum 18. Feb. 2006
Alter 20.1 years
Typ weather

Technische Details

Klassifizierung Payload
Masse 4650.00 kg
Trockenmasse 1700.00 kg
Gesamtmasse 4650.00 kg
Länge 6.00 m
Durchmesser 4.00 m
Spannweite 30.00 m
Form Box + Pan + Ant
Hersteller MELCO
Bus-Typ DS-2000
Phasenstatus In Orbit
Besitzer/Staat JCAB/JMA/J

Most Searched